OPTUS D1

Last updated on Jan. 27, 2020, 4:38 a.m. UTC

1 29495U 06043B   20026.37772913 -.00000117  00000-0  00000+0 0  9990
2 29495   0.0163  74.3893 0003299 234.9912 111.7415  1.00270190 48741
UTC
Height (km)
Latitude
Longitude
Inclination
Orbital Period
UTC large
Height (km)
Speed (km/s)
/
Latitude / Longitude
Inclination (degrees)
Orbital Period (minutes)
Azimuth
Elevation
Range (km)
Doppler Factor
iOS Compass Heading
iOS Angle

Next 30 passes for location: Hong Kong

Rise time Rise Azimuth (degrees) Set time Set Azimuth (degrees) Duration Max altitude (degrees)

No matching passes for this satellites